Showing default

SONATE-2, 59112

Orbit data source: Space-Track

SONATE-2, 59112 is a payload satellite owned by U Wurzburg (DE) in SSO that was launched on Mon, 04 Mar 2024 UTC via an FALCON 9 launch vehicle from the Air Force Western Test Range (AFWTR). Payload-class satellites include a variety of spacecraft equipped with specific instruments for various scientific and technological missions. These include communications satellites like Starlink; space stations such as the ISS; scientific satellites like the Hubble; Earth observation satellites from companies like Planet Labs, Umbra, and HawkEye 360; GPS; miniature CubeSats for education and research; and military/defense satellites.

Loading next visibility...
Identifier
59112, 2024-043Q
Orbit
SSO
Country
Flag of DEDE / GER
Related business
Manufacturer
U Wurzburg
Mission
Operational Amateur Technology
Bus & Motor
CUBESAT 6U, Unknown motor
Mass
~12 kg wet, ~12 kg dry
Launch date (UTC)
2024-03-04 (2 years ago)
Launch vehicle
FALCON 9
Launch site
Air Force Western Test Range (AFWTR)
Object type
Payload
Rocket body
Debris
Shape & HBR
Box + 2 Pan, 0.3 m
Radar Cross Section
0.051 m², Medium (>0.1 m² and < 1m²)

Expand to show TLE details & history
Last TLE update: 23 hours ago

TLE from 23 hours ago
0 SONATE-2
1 59112U 24043Q   25346.13486018  .00036853  00000-0  77931-3 0  9997
2 59112  97.5324 122.3631 0008969 164.2134 195.9396 15.45021217 98884
Epoch: 2025-12-12T03:14Z
TLE epoch observation values (Epoch: 2025-12-12T03:14:11.919Z)
Latitude
0.00001°
Longitude
-7.2674°
Altitude
440.311 km
Speed
7.644 km/s
True Right ascension
08h 09m 27s
True Declination
0° 00' 00"
Sunlit
Object was in full shadow at epoch
Visualization orbit readout
Latitude
Unknown
Longitude
Unknown
Altitude
Unknown
Speed
Unknown
Apparent Right ascension
Unknown
Apparent Declination
Unknown
Sunlit
N/A
Visualization observer readout
Local Sidereal Time
00:34:49
Azimuth
Unknown
Elevation
Unknown
Doppler factor
Unknown
Orbital elements
Apogee altitude
434.358 km
Perigee altitude
422.149 km
Semi-major axis
6,806.391 km
Eccentricity
0.0009
Inclination
97.5324°
RAAN
122.3631°
Arg. of periapsis
164.2134°
True anomaly
195.91141°
Mean anomaly
195.9396°
Eccentric anomaly
195.9255°
Mean motion
3.86516 °/min
Orbital period
93.14 mins
BSTAR
0.00077931
Loading maneuver chart data...
Computing Atmospheric mass density...
Loading historical data...
Loading historical data...
Loading historical data...
Loading historical data...
Loading historical data...
Loading historical data...
Loading historical data...

Documentation

Showing up to 5 results
|